Preview of NWS' New Version of Forecast
This preview is not operational and should not be used for support decisions.
Latest weather observations around

Nogales, Nogales International Airport (KOLS)

Using English Units (Switch to International System of Units)
Date/ Time (MST) Wind (mph) Vis. (mi) Weather Sky Cond. Temp (°F) Rel. Humidity Wind Chill (°F) Heat Index (°F) Pressure Precip. (in)
Air Dwpt 6 hour Altimeter (inHg) Sea level (inHg) 1 hr 3 hr 6 hr
Max Min
Sep 20 14:54 S 10 10 Mostly Cloudy BKN080 88 50     27%   85 29.97 29.77      
Sep 20 13:54 SW 8 10 Clear CLR 87 48     26%   84 29.98 29.77      
Sep 20 12:54 SW 11 10 Clear CLR 87 49     27%   84 30 29.8      
Sep 20 11:54 SSW 14 10 Clear CLR 87 48     26%   84 30.01 29.8      
Sep 20 10:54 SW 15 10 Clear CLR 85 47     27%   82 30.02 29.8      
Sep 20 09:54 S 15 10 Clear CLR 82 44     26%   80 30.02 29.82      
Sep 20 08:54 S 7 10 Clear CLR 78 47     33%   77 30.02 29.83      
Sep 20 07:54 Calm 10 Clear CLR 68 46     45%     30.01 29.84      
Sep 20 06:54 W 3 10 Clear CLR 59 47     64%     29.99 29.82      
Sep 20 05:54 ENE 6 10 Clear CLR 57 45     64%     29.98 29.8      
Sep 20 04:54 Calm 10 Clear CLR 58 46     65%     29.97 29.78      
Sep 20 03:54 Calm 10 Clear CLR 61 46     58%     29.95 29.75      
Sep 20 02:54 Calm 10 Clear CLR 61 46     58%     29.95 29.75      
Sep 20 01:54 Calm 10 Clear CLR 64 45     50%     29.96 29.76      
Sep 20 00:54 SSE 6 10 Clear CLR 63 47     56%     29.97 29.76      
Sep 19 23:54 SSE 6 10 Clear CLR 69 45     42%     29.96 29.74      
Sep 19 22:54 Calm 10 Clear CLR 72 47     41%   71 29.95 29.74      
Sep 19 21:54 ESE 3 10 Clear CLR 69 49     49%     29.95 29.74      
Sep 19 20:54 Calm 10 Clear CLR 70 48     46%     29.94 29.75      
Sep 19 19:54 Calm 10 Clear CLR 71 48     44%   70 29.93 29.75      
Sep 19 18:54 SW 6 10 Clear CLR 79 44     29%   78 29.92 29.74      
Sep 19 17:54 WSW 10 10 Clear CLR 84 43     24%   81 29.92 29.74      
Sep 19 16:54 W 10 10 Clear CLR 87 41     20%   84 29.92 29.73      
Sep 19 15:54 W 10 10 Clear CLR 88 44     22%   85 29.92 29.72      
Sep 19 14:54 3 10 Clear CLR 89 46     23%   86 29.93 29.72      
Sep 19 13:54 W 11 10 Clear CLR 90 46     22%   87 29.95 29.73      
Sep 19 12:54 WSW 14 10 Mostly Clear FEW085 89 48     24%   86 29.97 29.75      
Sep 19 11:54 SW 10 10 Clear CLR 88 49     26%   85 29.99 29.78      
Sep 19 10:54 WSW 8 10 Clear CLR 86 49     28%   83 30.02 29.8      
Sep 19 09:54 SSE 5 10 Clear CLR 85 47     27%   82 30.03 29.82      
Sep 19 08:54 Calm 10 Clear CLR 78 50     37%   77 30.04 29.84      
Sep 19 07:54 Calm 10 Clear CLR 69 52     54%     30.04 29.84      
Sep 19 06:54 Calm 10 Mostly Clear FEW080 62 52     70%     30.03 29.84      
Sep 19 05:54 Calm 10 Clear CLR 60 50     69%     30.02 29.83      
Sep 19 04:54 ENE 6 10 Mostly Clear FEW090 61 50     67%     30.01 29.81      
Sep 19 03:54 Calm 10 Mostly Clear FEW090 63 51     65%     30.02 29.81      
Sep 19 02:54 NE 5 10 Clear CLR 66 50     56%     30.02 29.81      
Sep 19 01:54 E 5 10 Mostly Clear FEW090 67 51     57%     30.03 29.83      
Sep 19 00:54 E 7 10 Clear CLR 68 51     55%     30.02 29.81      
Sep 18 23:54 E 6 10 Partly Cloudy SCT100 69 52     54%     30.03 29.82      
Sep 18 22:54 E 6 10 Clear CLR 69 53     57%     30.04 29.83      
Sep 18 21:54 ENE 3 10 Partly Cloudy SCT100 73 53     50%   72 30.03 29.82      
Sep 18 20:54 E 7 10 Mostly Cloudy BKN100 74 54     50%   73 30.02 29.82      
Sep 18 19:54 W 3 10 Cloudy BKN095 OVC110 80 50     35%   79 30.02 29.82      
Sep 18 18:54 W 3 10 Mostly Cloudy BKN100 81 50     34%   80 29.99 29.81      
Sep 18 17:54 WNW 3 10 Clear CLR 85 51     31%   83 29.99 29.8      
Sep 18 16:54 W 7 10 Mostly Clear FEW085 88 51     28%   85 29.99 29.8      
Sep 18 15:54 WNW 6 10 Partly Cloudy SCT110 89 51     27%   86 30 29.8      
Sep 18 14:54 Calm 10 Mostly Cloudy FEW090 BKN110 89 49     25%   86 30.01 29.81      
Sep 18 13:54 Calm 10 Mostly Cloudy FEW095 BKN120 86 50     29%   84 30.04 29.84      
Sep 18 12:54 Calm 10 Clear CLR 90 49     25%   87 30.05 29.83      
Sep 18 11:54 Calm 10 Clear CLR 89 48     24%   86 30.07 29.86      
Sep 18 10:54 W 3 10 Clear CLR 86 52     31%   84 30.09 29.88      
Sep 18 09:54 Calm 10 Clear CLR 83 54     37%   82 30.1 29.9      
Notice The following observation data may not be complete
Sep 18 08:54   10 Clear CLR          %              
Sep 18 06:54 Calm 10 Clear CLR 63 54     72%     30.08 29.91      
Sep 18 05:54 Calm 10 Mostly Cloudy BKN110 61 54     78%     30.07 29.89      
Sep 18 04:54 Calm 10 Mostly Cloudy BKN110 60 54     80%     30.05 29.87      
Sep 18 03:54 Calm 10 Clear CLR 61 53     75%     30.05 29.86      
Sep 18 02:54 Calm 10 Clear CLR 62 53     72%     30.06 29.86      
Sep 18 01:54 Calm 10 Clear CLR 62 54     75%     30.07 29.87      
Sep 18 00:54 NE 5 10 Clear CLR 65 54     68%     30.07 29.86      
Sep 17 23:54 Calm 10 Clear CLR 65 53     65%     30.06 29.86      
Sep 17 22:54 NE 3 10 Clear CLR 66 54     65%     30.06 29.86      
Sep 17 21:54 ENE 3 10 Clear CLR 69 53     57%     30.05 29.86      
Sep 17 20:54 ENE 6 10 Clear CLR 71 52     51%   70 30.05 29.86      
Sep 17 19:54 ENE 6 10 Clear   72 53     51%   71 30.03 29.86      
Sep 17 18:54 NW 5 10 Clear CLR 78 48     35%   77 30.02 29.85      
Sep 17 17:54 WNW 7 10 Clear CLR 84 49     30%   82 30.02 29.84      
Sep 17 16:54 W 6 10 Mostly Clear FEW120 85 47     27%   82 30.02 29.83      
Sep 17 15:54 W 8 10 Clear CLR 88 49     26%   85 30.02 29.83      
Sep 17 14:54 NW 8 10 Clear CLR 89 51     27%   86 30.04 29.84      
May 12 09:54 S 23 10 Clear and Windy CLR 80 25     13%   78 29.99 29.79      
May 11 19:54 S 15 10 Clear CLR 79 37     22%   78 29.91 29.7      
Jun 11 05:54 SE 9 10 Clear CLR 68 25     20%     29.95        
Jun 10 19:54 S 10 10 Clear CLR 82        %     29.91 29.69      
Jun 09 14:54   10 Clear CLR 98 35     11%   93 29.94 29.71      
Jun 08 17:54 SSE 7 10 Clear CLR 93 37     14%   89 29.95 29.73      
Jun 08 14:54 W 11 10 Clear CLR 96 34     11%   91 29.99 29.76      
Jun 08 05:54 Calm 10 Clear CLR 69 51     53%     30.08 29.9      
Jun 08 04:54 Calm 10 Clear CLR 66 53     63%     30.07 29.87      
Jun 06 03:54 Calm 10 Clear CLR 68 41     37%     30.02 29.78      
Jun 06 01:54 SSE 6 10 Clear CLR 74 43     33%   73 30.01 29.76